KB1JDX Weather Reports


time (UTC)temp
C
wind
direction
speed
KPH
gust
KPH
rain 1hr
cm
rain 24hr
cm
rain mn
cm
humidity
%
barometer
mb
20260903071204 17 183 0.0 0.0 0.00 0.00 0.00 100 1015.8
20260903065206 17 183 0.0 0.0 0.00 0.00 0.00 100 1016.2
20260903063205 17 183 0.0 0.0 0.00 0.00 0.00 100 1016.6
20260903063102 17 183 0.0 0.0 0.00 0.00 0.00 100 1016.6
20260903061206 17 183 0.0 0.0 0.00 0.00 0.00 100 1017.3
20260903055205 17 183 0.0 0.0 0.00 0.00 0.00 100 1017.5
20260903053102 17 183 0.0 0.0 0.00 0.00 0.00 100 1017.7
20260903051205 17 183 0.0 0.0 0.00 0.00 0.00 100 1018.2
20260903045206 17 183 0.0 0.0 0.00 0.00 0.00 100 1018.4
20260903043242 17 183 0.0 0.0 0.00 0.00 0.00 100 1018.1
20260903043207 17 183 0.0 0.0 0.00 0.00 0.00 100 1018.1
20260903043103 17 183 0.0 0.0 0.00 0.00 0.00 100 1018.2
20260903041205 17 183 0.0 0.0 0.00 0.00 0.00 100 1018.3
20260903035205 17 183 0.0 0.0 0.00 0.00 0.00 100 1018.3
20260903033206 18 183 0.0 0.0 0.00 0.00 0.00 100 1018.1
20260903033102 18 183 0.0 0.0 0.00 0.00 0.00 100 1018.1
20260903031205 18 183 0.0 0.0 0.00 0.00 0.00 100 1018.5
20260903025205 18 183 0.0 0.0 0.00 0.00 0.00 100 1019.1
20260903023205 18 183 0.0 0.0 0.00 0.00 0.00 100 1019.4
20260903023102 18 183 0.0 0.0 0.00 0.00 0.00 100 1019.3
20260903021205 18 183 0.0 0.0 0.00 0.00 0.00 100 1019.5
20260903015207 18 183 0.0 0.0 0.00 0.00 0.00 100 1019.1
20260903013102 18 183 0.0 0.0 0.00 0.00 0.00 100 1019.1
20260903011205 18 183 0.0 0.0 0.00 0.00 0.00 100 1019.1
20260903005205 19 183 0.0 0.0 0.00 0.00 0.00 100 1019.3
20260903003206 19 183 0.0 0.0 0.00 0.00 0.00 100 1019.4
20260903003102 19 183 0.0 0.0 0.00 0.00 0.00 100 1019.4
20260903001205 19 183 0.0 0.0 0.00 0.00 0.00 100 1019.4
20260902235205 20 183 0.0 0.0 0.00 0.00 0.00 100 1019.6
20260902233205 20 183 0.0 0.0 0.00 0.00 0.00 11 1020.1
20260902233102 20 183 0.0 0.0 0.00 0.00 0.00 11 1020.2
20260902231205 20 183 0.0 0.0 0.00 0.00 0.00 23 1020.1
20260902225206 20 183 0.0 0.0 0.00 0.00 0.00 33 1020.3
20260902223205 21 183 0.0 0.0 0.00 0.00 0.00 44 1020.6
20260902223102 21 183 0.0 0.0 0.00 0.00 0.00 44 1020.7
20260902221205 21 183 0.0 0.0 0.00 0.00 0.00 48 1020.3
20260902215205 21 183 0.0 8.0 0.00 0.00 0.00 51 1020.1
20260902213205 21 183 0.0 8.0 0.00 0.00 0.00 52 1019.7
20260902213102 21 183 0.0 8.0 0.00 0.00 0.00 52 1019.6
20260902211205 22 178 0.0 8.0 0.00 0.00 0.00 51 1019.3
20260902205204 22 184 0.0 6.4 0.00 0.00 0.00 51 1019.5
20260902203205 22 197 0.0 6.4 0.00 0.00 0.00 51 1020.0
20260902203102 22 197 0.0 6.4 0.00 0.00 0.00 51 1020.0
20260902195205 23 205 0.0 9.7 0.00 0.00 0.00 50 1020.2
20260902193205 23 203 0.0 9.7 0.00 0.00 0.00 50 1020.1
20260902193102 23 203 0.0 9.7 0.00 0.00 0.00 50 1020.2
20260902191742 23 184 11.3 12.9 0.00 0.00 0.00 49 1020.5
20260902191205 24 182 0.0 9.7 0.00 0.00 0.00 50 1020.3
20260902185206 25 212 0.0 12.9 0.00 0.00 0.00 49 1020.5
20260902183205 24 192 0.0 12.9 0.00 0.00 0.00 49 1020.4
20260902183102 24 192 0.0 12.9 0.00 0.00 0.00 49 1020.4
20260902181205 23 184 11.3 12.9 0.00 0.00 0.00 49 1020.5
20260902175207 23 195 0.0 12.9 0.00 0.00 0.00 49 1020.5
20260902173205 23 207 0.0 12.9 0.00 0.00 0.00 48 1020.6
20260902173102 23 207 0.0 12.9 0.00 0.00 0.00 48 1020.6
20260902163207 23 160 0.0 0.0 0.00 0.00 0.00 42 1021.0
20260902163102 23 161 0.0 0.0 0.00 0.00 0.00 43 1021.1
20260902161205 22 211 0.0 0.0 0.00 0.00 0.00 39 1021.0
20260902155205 22 220 0.0 0.0 0.00 0.00 0.00 38 1021.1
20260902153205 22 176 0.0 0.0 0.00 0.00 0.00 30 1021.6
20260902153102 22 176 0.0 0.0 0.00 0.00 0.00 30 1021.6
20260902151207 21 176 0.0 0.0 0.00 0.00 0.00 30 1021.5
20260902145205 21 218 0.0 0.0 0.00 0.00 0.00 19 1021.5
20260902143102 20 345 0.0 0.0 0.00 0.00 0.00 100 1021.5
20260902141205 20 349 0.0 0.0 0.00 0.00 0.00 100 1021.3
20260902135206 19 349 0.0 0.0 0.00 0.00 0.00 100 1021.2
20260902133205 18 349 0.0 0.0 0.00 0.00 0.00 100 1021.1
20260902133102 18 349 0.0 0.0 0.00 0.00 0.00 100 1021.1
20260902131205 18 252 0.0 0.0 0.00 0.00 0.00 100 1020.8
20260902125204 18 252 0.0 0.0 0.00 0.00 0.00 100 1021.0
20260902123204 17 169 0.0 0.0 0.00 0.00 0.00 100 1021.1
20260902123102 17 168 0.0 0.0 0.00 0.00 0.00 100 1021.0
20260902121205 17 167 0.0 0.0 0.00 0.00 0.00 100 1021.0
20260902113206 16 167 0.0 0.0 0.00 0.00 0.00 100 1021.2
20260902113102 16 167 0.0 0.0 0.00 0.00 0.00 100 1021.1
20260902103205 15 167 0.0 0.0 0.00 0.00 0.00 100 1020.9
20260902103102 15 167 0.0 0.0 0.00 0.00 0.00 100 1020.9
20260902102130 15 167 0.0 0.0 0.00 0.00 0.00 100 1020.0
20260902101205 15 167 0.0 0.0 0.00 0.00 0.00 100 1020.7
20260902093204 15 167 0.0 0.0 0.00 0.00 0.00 100 1020.1
20260902093102 15 167 0.0 0.0 0.00 0.00 0.00 100 1020.1
20260902091205 15 167 0.0 0.0 0.00 0.00 0.00 100 1020.0
20260902083205 15 167 0.0 0.0 0.00 0.00 0.00 100 1020.0
20260902083101 15 167 0.0 0.0 0.00 0.00 0.00 100 1020.0
20260902081204 15 167 0.0 0.0 0.00 0.00 0.00 100 1020.1
20260902075204 15 167 0.0 0.0 0.00 0.00 0.00 100 1019.7
20260902073102 15 167 0.0 0.0 0.00 0.00 0.00 100 1020.0